Find Starlink 33601

NORAD ID: 62768 Int'l Des: 2025-015 Owner: SPXS Country: US Constellation: starlink operational
LEOCIRCULAR

Live Position

Loading 3D Globe...

About Starlink 33601

Description loading...

Upcoming Passes

Passes for default location (London). Set your location on the main map for personalized predictions.

Altitude History

Loading altitude history...

Two-Line Element Set

1 62768U 25015L 26127.09133619 .00019820 00000-0 67965-3 0 9998
2 62768 53.1586 51.1194 0001033 81.7239 278.3878 15.30194022 73423
Epoch: May 7, 2026 • Age: 7 hours

Current Status

Altitude 475.3 km
Velocity 7.63 km/s
Sub-Earth Point 17.81°N, 146.52°W
Launch Date Jan 21, 2025
Age 1.2 years
Type internet

Technical Details

Classification Payload
Mass 575.00 kg
Dry Mass 530.00 kg
Total Mass 575.00 kg
Length 0.30 m
Diameter 4.10 m
Span 29.00 m
Shape Box + pan
Manufacturer SPXS
Bus Type Starlink V2MO
Phase Status In Orbit
Owner/State SPXS/US

Most Searched